SB KEPS @ AMSAT $ORB07186.O Orbital Elements 07186.OSCAR
HR AMSAT ORBITAL ELEMENTS FOR OSCAR SATELLITES FROM WA5QGD FORT WORTH,TX July 5, 2007 Send SUBSCRIBE KEPS/UNSUBSCRIBE KEPS to [email protected] only BID: ORB07186.O TO ALL RADIO AMATEURS BT
Satellite: AO-07 Catalog number: 07530 Epoch time: 07185.69891364 Element set: 917 Inclination: 101.5125 deg RA of node: 223.1908 deg Eccentricity: 0.0011690 Arg of perigee: 221.3030 deg Mean anomaly: 138.7156 deg Mean motion: 12.53572451 rev/day Decay rate: -2.8e-07 rev/day^2 Epoch rev: 49331 Checksum: 282
Satellite: AO-10 Catalog number: 14129 Epoch time: 07185.54227426 Element set: 395 Inclination: 026.3897 deg RA of node: 268.6461 deg Eccentricity: 0.6064639 Arg of perigee: 036.0462 deg Mean anomaly: 352.5888 deg Mean motion: 02.05869792 rev/day Decay rate: -1.73e-06 rev/day^2 Epoch rev: 18092 Checksum: 340
Satellite: UO-11 Catalog number: 14781 Epoch time: 07185.70642029 Element set: 0413 Inclination: 098.1876 deg RA of node: 208.7438 deg Eccentricity: 0.0010152 Arg of perigee: 111.9360 deg Mean anomaly: 248.2959 deg Mean motion: 14.79564748 rev/day Decay rate: 3.17e-06 rev/day^2 Epoch rev: 25232 Checksum: 312
Satellite: RS-15 Catalog number: 23439 Epoch time: 07185.89852740 Element set: 0060 Inclination: 064.8186 deg RA of node: 338.2766 deg Eccentricity: 0.0158783 Arg of perigee: 187.5304 deg Mean anomaly: 172.3231 deg Mean motion: 11.27551930 rev/day Decay rate: -3.9e-07 rev/day^2 Epoch rev: 51569 Checksum: 328
Satellite: FO-29 Catalog number: 24278 Epoch time: 07185.87899804 Element set: 0559 Inclination: 098.5513 deg RA of node: 143.1497 deg Eccentricity: 0.0351548 Arg of perigee: 037.5204 deg Mean anomaly: 324.9921 deg Mean motion: 13.52930771 rev/day Decay rate: -6.0e-07 rev/day^2 Epoch rev: 53729 Checksum: 346
Satellite: SO-33 Catalog number: 25509 Epoch time: 07185.80933625 Element set: 0966 Inclination: 031.4309 deg RA of node: 126.1106 deg Eccentricity: 0.0355743 Arg of perigee: 221.4548 deg Mean anomaly: 135.8586 deg Mean motion: 14.28167228 rev/day Decay rate: -6.8e-07 rev/day^2 Epoch rev: 45377 Checksum: 324
Satellite: AO-40 Catalog number: 26609 Epoch time: 07186.65102934 Element set: 899 Inclination: 005.8166 deg RA of node: 135.2164 deg Eccentricity: 0.7983130 Arg of perigee: 337.1257 deg Mean anomaly: 001.4667 deg Mean motion: 01.25587521 rev/day Decay rate: -2.0e-08 rev/day^2 Epoch rev: 3067 Checksum: 303
Satellite: VO-52 Catalog number: 28650 Epoch time: 07185.80674237 Element set: 0668 Inclination: 097.8317 deg RA of node: 256.1301 deg Eccentricity: 0.0026938 Arg of perigee: 193.7498 deg Mean anomaly: 166.2956 deg Mean motion: 14.81331185 rev/day Decay rate: -1.85e-06 rev/day^2 Epoch rev: 11702 Checksum: 334
Satellite: PO-63 Catalog number: 29712 Epoch time: 07186.63774486 Element set: 516 Inclination: 097.9201 deg RA of node: 245.5404 deg Eccentricity: 0.0015765 Arg of perigee: 071.5766 deg Mean anomaly: 288.7156 deg Mean motion: 14.79748537 rev/day Decay rate: 4.94e-06 rev/day^2 Epoch rev: 2606 Checksum: 350
/EX SB KEPS @ AMSAT $ORB07186.D Orbital Elements 07186.MICROS
HR AMSAT ORBITAL ELEMENTS FOR THE MICROSATS FROM WA5QGD FORT WORTH,TX July 5, 2007 Send SUBSCRIBE KEPS/UNSUBSCRIBE KEPS to [email protected] only BID: ORB07186.D TO ALL RADIO AMATEURS BT
Satellite: AO-16 Catalog number: 20439 Epoch time: 07185.84125114 Element set: 0074 Inclination: 098.1955 deg RA of node: 179.4238 deg Eccentricity: 0.0011365 Arg of perigee: 129.4722 deg Mean anomaly: 230.7461 deg Mean motion: 14.31764404 rev/day Decay rate: 1.8e-07 rev/day^2 Epoch rev: 91107 Checksum: 292
Satellite: LO-19 Catalog number: 20442 Epoch time: 07185.59726471 Element set: 0 Inclination: 098.1789 deg RA of node: 188.5210 deg Eccentricity: 0.0012493 Arg of perigee: 129.7337 deg Mean anomaly: 230.4971 deg Mean motion: 14.32004758 rev/day Decay rate: 4.8e-07 rev/day^2 Epoch rev: 91118 Checksum: 305
Satellite: AO-27 Catalog number: 22825 Epoch time: 07185.49026944 Element set: 722 Inclination: 098.3309 deg RA of node: 154.6175 deg Eccentricity: 0.0007702 Arg of perigee: 205.9382 deg Mean anomaly: 154.1436 deg Mean motion: 14.29212259 rev/day Decay rate: 4.7e-07 rev/day^2 Epoch rev: 71796 Checksum: 317
Satellite: IO-26 Catalog number: 22826 Epoch time: 07185.81460247 Element set: 0421 Inclination: 098.3244 deg RA of node: 155.9913 deg Eccentricity: 0.0008195 Arg of perigee: 202.6040 deg Mean anomaly: 157.4782 deg Mean motion: 14.29458337 rev/day Decay rate: -1.9e-07 rev/day^2 Epoch rev: 71809 Checksum: 315
Satellite: PO-28 Catalog number: 22829 Epoch time: 07185.48214233 Element set: 0698 Inclination: 098.3129 deg RA of node: 156.8372 deg Eccentricity: 0.0009544 Arg of perigee: 176.0188 deg Mean anomaly: 184.1072 deg Mean motion: 14.30158580 rev/day Decay rate: -1.04e-06 rev/day^2 Epoch rev: 71828 Checksum: 321
Satellite: GO-32 Catalog number: 25397 Epoch time: 07185.80741914 Element set: 341 Inclination: 098.4123 deg RA of node: 232.2487 deg Eccentricity: 0.0001509 Arg of perigee: 138.8903 deg Mean anomaly: 221.2395 deg Mean motion: 14.23128435 rev/day Decay rate: 1.44e-06 rev/day^2 Epoch rev: 46666 Checksum: 300
Satellite: MO-46 Catalog number: 26548 Epoch time: 07185.58031165 Element set: 0837 Inclination: 064.5561 deg RA of node: 128.8565 deg Eccentricity: 0.0013525 Arg of perigee: 195.9246 deg Mean anomaly: 164.1438 deg Mean motion: 14.83155189 rev/day Decay rate: -1.53e-06 rev/day^2 Epoch rev: 36612 Checksum: 327
Satellite: NO-44 Catalog number: 26931 Epoch time: 07186.27951929 Element set: 626 Inclination: 067.0527 deg RA of node: 100.8852 deg Eccentricity: 0.0007709 Arg of perigee: 265.0696 deg Mean anomaly: 094.9533 deg Mean motion: 14.29489515 rev/day Decay rate: 1.41e-06 rev/day^2 Epoch rev: 30068 Checksum: 331
Satellite: SO-50 Catalog number: 27607 Epoch time: 07185.79603053 Element set: 350 Inclination: 064.5588 deg RA of node: 031.5714 deg Eccentricity: 0.0056258 Arg of perigee: 355.1555 deg Mean anomaly: 004.8950 deg Mean motion: 14.71270101 rev/day Decay rate: -1.04e-06 rev/day^2 Epoch rev: 24371 Checksum: 284
Satellite: CO-55 Catalog number: 27844 Epoch time: 07185.57263703 Element set: 65 Inclination: 098.7172 deg RA of node: 193.6348 deg Eccentricity: 0.0011006 Arg of perigee: 044.4829 deg Mean anomaly: 315.7243 deg Mean motion: 14.20519712 rev/day Decay rate: 3.7e-07 rev/day^2 Epoch rev: 20794 Checksum: 307
Satellite: CO-57 Catalog number: 27848 Epoch time: 07185.59543179 Element set: 25 Inclination: 098.7166 deg RA of node: 192.8466 deg Eccentricity: 0.0010733 Arg of perigee: 047.4210 deg Mean anomaly: 312.7859 deg Mean motion: 14.20337857 rev/day Decay rate: 2.6e-07 rev/day^2 Epoch rev: 20792 Checksum: 331
Satellite: AO-51 Catalog number: 28375 Epoch time: 07185.65487976 Element set: 854 Inclination: 098.1108 deg RA of node: 224.0722 deg Eccentricity: 0.0084251 Arg of perigee: 128.8545 deg Mean anomaly: 232.0199 deg Mean motion: 14.40573221 rev/day Decay rate: 1.8e-07 rev/day^2 Epoch rev: 15822 Checksum: 313
Satellite: CO-56 Catalog number: 28941 Epoch time: 07185.80100251 Element set: 0488 Inclination: 098.1276 deg RA of node: 248.8647 deg Eccentricity: 0.0223367 Arg of perigee: 210.3249 deg Mean anomaly: 148.4918 deg Mean motion: 15.40295153 rev/day Decay rate: 1.1183e-04 rev/day^2 Epoch rev: 07614 Checksum: 319
Satellite: HO-59 Catalog number: 29484 Epoch time: 07186.42176911 Element set: 473 Inclination: 098.2820 deg RA of node: 238.9776 deg Eccentricity: 0.0203944 Arg of perigee: 200.1684 deg Mean anomaly: 159.1464 deg Mean motion: 15.52093195 rev/day Decay rate: 3.4929e-04 rev/day^2 Epoch rev: 4390 Checksum: 343
Satellite: NO-60 Catalog number: 29661 Epoch time: 07150.05824307 Element set: 300 Inclination: 051.6186 deg RA of node: 176.5045 deg Eccentricity: 0.0007204 Arg of perigee: 190.7749 deg Mean anomaly: 188.7342 deg Mean motion: 16.52052832 rev/day Decay rate: 1.3324117e-01 rev/day^2 Epoch rev: 2554 Checksum: 290
Satellite: NO-61 Catalog number: 29664 Epoch time: 07186.62761480 Element set: 269 Inclination: 051.6311 deg RA of node: 355.1395 deg Eccentricity: 0.0011906 Arg of perigee: 058.5361 deg Mean anomaly: 301.6755 deg Mean motion: 15.92792532 rev/day Decay rate: 3.4013e-04 rev/day^2 Epoch rev: 3109 Checksum: 304
Satellite: CP4 Catalog number: 31122 Epoch time: 07185.93067525 Element set: 0076 Inclination: 098.0810 deg RA of node: 258.6338 deg Eccentricity: 0.0084607 Arg of perigee: 330.8897 deg Mean anomaly: 028.7545 deg Mean motion: 14.55015558 rev/day Decay rate: 5.95e-06 rev/day^2 Epoch rev: 01143 Checksum: 315
Satellite: CP3 Catalog number: 31128 Epoch time: 07185.75749380 Element set: 0072 Inclination: 098.0815 deg RA of node: 258.0765 deg Eccentricity: 0.0102245 Arg of perigee: 332.2801 deg Mean anomaly: 027.2963 deg Mean motion: 14.51844078 rev/day Decay rate: -4.8e-07 rev/day^2 Epoch rev: 01137 Checksum: 294
Satellite: LIBERT Catalog number: 31129 Epoch time: 07186.64875770 Element set: 200 Inclination: 098.0820 deg RA of node: 258.9407 deg Eccentricity: 0.0102140 Arg of perigee: 329.5766 deg Mean anomaly: 029.9505 deg Mean motion: 14.51936396 rev/day Decay rate: 3.83e-06 rev/day^2 Epoch rev: 1148 Checksum: 306
/EX SB KEPS @ AMSAT $ORB07186.W Orbital Elements 07186.WEATHER
HR AMSAT ORBITAL ELEMENTS FOR WEATHER SATELLITES FROM WA5QGD FORT WORTH,TX July 5, 2007 Send SUBSCRIBE KEPS/UNSUBSCRIBE KEPS to [email protected] only BID: ORB07186.W TO ALL RADIO AMATEURS BT
Satellite: NOAA-10 Catalog number: 16969 Epoch time: 07186.45921130 Element set: 716 Inclination: 098.7433 deg RA of node: 203.6509 deg Eccentricity: 0.0013230 Arg of perigee: 112.5041 deg Mean anomaly: 247.7556 deg Mean motion: 14.27328280 rev/day Decay rate: -9.3e-07 rev/day^2 Epoch rev: 8183 Checksum: 292
